SANTA FE DAM CA US current weather conditions

sailwx.info

Wind from 221 at 6 knots gusting 13

Air temperature 17.8° C
Dewpoint 10.6° C

Last reported at 2016-Apr-30 01:57 UTC.
Time now 2016-Apr-30 03:24 UTC

Location: N 34°08' W 117°57'.
View on Google Maps.

See reports from other nearby stations

  
Tides and Currents Weather Stations Pressure Air Temp Water Temp Dewpoint Dewpoint Depression Visibility Wind Speed Wind Dir Waves Ship Positions
date/time (UTC)wind fromknots sea level pressurealtimeterstation pressurevisibilityair tempwater tempwave heightnotes
2016-Apr-30 01:57 221 6 gusting 13 17.8
2016-Apr-30 00:57 235 7 gusting 16 20.6
2016-Apr-29 23:57 238 8 gusting 18 21.7
2016-Apr-29 22:57 239 6 gusting 16 24.4
2016-Apr-29 21:57 196 5 gusting 16 22.8
2016-Apr-29 20:57 307 2 gusting 9 23.3
2016-Apr-29 19:57 324 3 gusting 10 21.1
2016-Apr-29 18:57 325 3 gusting 7 20.0
2016-Apr-29 17:57 095 1 gusting 6 19.4
2016-Apr-29 16:57 048 2 gusting 5 16.1
2016-Apr-29 15:57 013 2 gusting 7 15.6
2016-Apr-29 14:57 048 2 gusting 7 13.3
2016-Apr-29 13:57 038 3 gusting 9 12.8
2016-Apr-29 12:57 029 2 gusting 7 12.2
2016-Apr-29 11:57 027 2 gusting 8 11.7
2016-Apr-29 10:57 129 1 gusting 6 11.7
2016-Apr-29 09:57 043 2 gusting 26 12.2
2016-Apr-29 08:57 039 2 gusting 9 12.2
2016-Apr-29 07:57 033 3 gusting 7 11.7
2016-Apr-29 06:57 044 2 gusting 6 11.7
2016-Apr-29 05:57 062 0 gusting 20 11.1
2016-Apr-29 04:57 177 3 gusting 5 12.8
2016-Apr-29 03:57 220 3 gusting 7 15.0
2016-Apr-29 02:57 183 5 gusting 13 16.1
2016-Apr-29 01:57 228 6 gusting 13 18.3
2016-Apr-29 00:57 230 7 gusting 15 20.0
2016-Apr-28 23:57 188 8 gusting 19 22.2
2016-Apr-28 22:57 192 6 gusting 14 21.1
2016-Apr-28 21:57 212 7 gusting 19 21.1
2016-Apr-28 20:57 223 5 gusting 12 23.3
2016-Apr-28 19:57 146 4 gusting 12 21.7
2016-Apr-28 18:57 289 2 gusting 8 20.0
2016-Apr-28 17:57 017 3 gusting 8 20.0
2016-Apr-28 16:57 088 3 gusting 7 16.1
2016-Apr-28 15:57 187 2 gusting 5 16.1
2016-Apr-28 14:57 247 1 gusting 4 15.6
2016-Apr-28 13:57 256 2 gusting 5 12.2
2016-Apr-28 12:57 002 0 gusting 4 11.1
2016-Apr-28 11:57 012 1 gusting 2 11.7
2016-Apr-28 10:57 070 1 gusting 6 10.6
2016-Apr-28 09:57 070 2 gusting 26 12.2
2016-Apr-28 08:57 096 4 gusting 9 12.8
2016-Apr-28 07:57 119 6 gusting 13 13.9
2016-Apr-28 06:57 198 5 gusting 12 15.0
2016-Apr-28 05:57 119 4 gusting 8 15.0
2016-Apr-28 04:57 169 5 gusting 8 15.6
2016-Apr-28 03:57 201 3 gusting 6 14.4